Time,TemperatureF,DewpointF,PressureIn,WindDirection,WindDirectionDegrees,WindSpeedMPH,WindSpeedGustMPH,Humidity,HourlyPrecipIn,Conditions,Clouds,dailyrainin,SoftwareType,DateUTC
2013-01-25 00:00:00,14.3,9.0,30.20,South,184,9.0,21.0,79,0.00,,OVC046,0.00,VWS V14.01,2013-01-25 06:00:00,
2013-01-25 00:10:00,14.2,8.9,30.18,South,175,10.0,23.1,79,0.00,,OVC046,0.00,VWS V14.01,2013-01-25 06:10:00,
2013-01-25 00:20:00,14.3,9.3,30.17,SSE,163,9.0,21.0,80,0.00,,OVC046,0.00,VWS V14.01,2013-01-25 06:20:00,
2013-01-25 00:30:00,14.3,9.6,30.17,SSE,162,10.0,18.9,81,0.00,,OVC044,0.00,VWS V14.01,2013-01-25 06:30:00,
2013-01-25 00:40:00,14.3,9.6,30.17,South,178,15.0,19.9,81,0.00,,OVC044,0.00,VWS V14.01,2013-01-25 06:40:00,
2013-01-25 00:46:00,14.4,9.6,30.17,South,186,20.0,21.0,81,0.00,,BKN100,0.00,VWS V14.01,2013-01-25 06:46:00,
2013-01-25 01:00:00,14.3,9.6,30.15,SSE,167,9.0,18.9,81,0.00,,BKN100,0.00,VWS V14.01,2013-01-25 07:00:00,
2013-01-25 01:10:00,14.0,9.3,30.14,South,172,7.0,19.9,81,0.00,,CLR,0.00,VWS V14.01,2013-01-25 07:10:00,
2013-01-25 01:20:00,13.8,9.1,30.14,South,174,8.0,17.8,81,0.00,,CLR,0.00,VWS V14.01,2013-01-25 07:20:00,
2013-01-25 01:30:00,13.6,8.9,30.13,South,184,10.0,18.9,81,0.00,,CLR,0.00,VWS V14.01,2013-01-25 07:30:00,
2013-01-25 01:40:00,13.4,8.7,30.12,South,180,8.0,15.7,81,0.00,,CLR,0.00,VWS V14.01,2013-01-25 07:40:00,
2013-01-25 01:50:00,13.4,8.7,30.12,South,182,12.0,15.7,81,0.00,,CLR,0.00,VWS V14.01,2013-01-25 07:50:00,
2013-01-25 02:00:00,13.3,8.6,30.12,South,189,12.0,17.8,81,0.00,,CLR,0.00,VWS V14.01,2013-01-25 08:00:00,
2013-01-25 02:10:00,13.0,8.6,30.12,South,176,8.0,17.8,82,0.00,,BKN039,0.00,VWS V14.01,2013-01-25 08:10:00,
2013-01-25 02:20:00,13.1,8.6,30.12,South,180,9.0,16.8,82,0.00,,BKN039,0.00,VWS V14.01,2013-01-25 08:20:00,
2013-01-25 02:30:00,13.0,8.8,30.12,South,186,12.0,15.7,83,0.00,,SCT039,0.00,VWS V14.01,2013-01-25 08:30:00,
2013-01-25 02:40:00,13.2,9.0,30.11,SSW,194,10.0,15.7,83,0.00,,SCT039,0.00,VWS V14.01,2013-01-25 08:40:00,
2013-01-25 02:50:00,13.4,9.2,30.11,SSW,192,10.0,14.7,83,0.00,,SCT037,0.00,VWS V14.01,2013-01-25 08:50:00,
2013-01-25 03:00:00,13.7,9.5,30.10,South,186,15.0,15.7,83,0.00,,SCT037,0.00,VWS V14.01,2013-01-25 09:00:00,
2013-01-25 03:10:00,13.8,9.6,30.10,SSW,198,12.0,15.7,83,0.00,,BKN035,0.00,VWS V14.01,2013-01-25 09:10:00,
2013-01-25 03:20:00,13.7,9.5,30.09,SSW,194,11.0,14.7,83,0.00,,BKN035,0.00,VWS V14.01,2013-01-25 09:20:00,
2013-01-25 03:30:00,13.8,9.6,30.09,SSW,205,9.0,14.7,83,0.00,,OVC034,0.00,VWS V14.01,2013-01-25 09:30:00,
2013-01-25 03:40:00,13.6,9.4,30.09,SSW,203,11.0,15.7,83,0.00,,OVC034,0.00,VWS V14.01,2013-01-25 09:40:00,
2013-01-25 03:50:00,13.5,9.3,30.08,SSW,207,11.0,14.7,83,0.00,,OVC030,0.00,VWS V14.01,2013-01-25 09:50:00,
2013-01-25 04:00:00,13.6,9.4,30.07,SSW,213,10.0,13.6,83,0.00,,OVC030,0.00,VWS V14.01,2013-01-25 10:00:00,
2013-01-25 04:10:00,13.8,9.6,30.06,SW,215,14.0,15.7,83,0.00,,OVC020,0.00,VWS V14.01,2013-01-25 10:10:00,
2013-01-25 04:20:00,14.3,9.8,30.06,SW,223,13.0,16.8,82,0.00,,OVC020,0.00,VWS V14.01,2013-01-25 10:20:00,
2013-01-25 04:30:00,14.6,10.1,30.06,SW,222,15.0,19.9,82,0.00,,OVC018,0.00,VWS V14.01,2013-01-25 10:30:00,
2013-01-25 04:40:00,14.9,10.4,30.06,WNW,288,6.0,17.8,82,0.00,,OVC018,0.00,VWS V14.01,2013-01-25 10:40:00,
2013-01-25 04:50:00,15.3,11.1,30.05,WSW,242,13.0,15.7,83,0.00,,OVC018,0.00,VWS V14.01,2013-01-25 10:50:00,
2013-01-25 05:00:00,15.7,11.7,30.05,WSW,239,7.0,13.6,84,0.00,,OVC018,0.00,VWS V14.01,2013-01-25 11:00:00,
2013-01-25 05:10:00,16.1,11.9,30.04,SW,225,9.0,16.8,83,0.00,,OVC018,0.00,VWS V14.01,2013-01-25 11:10:00,
2013-01-25 05:20:00,16.2,12.2,30.04,SW,221,10.0,13.6,84,0.00,,OVC018,0.00,VWS V14.01,2013-01-25 11:20:00,
2013-01-25 05:30:00,16.3,12.3,30.04,SW,228,7.0,13.6,84,0.00,,OVC020,0.00,VWS V14.01,2013-01-25 11:30:00,
2013-01-25 05:40:00,16.3,12.3,30.03,SW,228,7.0,7.3,84,0.00,,OVC020,0.00,VWS V14.01,2013-01-25 11:40:00,
2013-01-25 05:50:00,16.3,12.3,30.03,SW,228,7.0,7.3,84,0.00,,OVC018,0.00,VWS V14.01,2013-01-25 11:50:00,
2013-01-25 06:00:00,16.3,12.3,30.04,SW,228,7.0,7.3,84,0.00,,OVC018,0.00,VWS V14.01,2013-01-25 12:00:00,
2013-01-25 06:10:00,17.7,14.2,30.04,SSW,211,8.0,15.7,86,0.00,,OVC020,0.00,VWS V14.01,2013-01-25 12:10:00,
2013-01-25 06:20:00,18.2,14.5,30.04,WSW,250,7.0,16.8,85,0.00,,OVC020,0.00,VWS V14.01,2013-01-25 12:20:00,
2013-01-25 06:30:00,18.7,14.9,30.04,WNW,285,12.0,18.9,85,0.00,,OVC020,0.00,VWS V14.01,2013-01-25 12:30:00,
2013-01-25 06:40:00,18.9,15.4,30.04,West,279,6.0,16.8,86,0.00,,OVC020,0.00,VWS V14.01,2013-01-25 12:40:00,
2013-01-25 06:50:00,19.6,16.1,30.04,WSW,258,6.0,13.6,86,0.00,,OVC020,0.00,VWS V14.01,2013-01-25 12:50:00,
2013-01-25 07:00:00,19.8,16.3,30.04,WNW,290,6.0,9.4,86,0.00,,OVC020,0.00,VWS V14.01,2013-01-25 13:00:00,
2013-01-25 07:10:00,20.0,16.5,30.04,WNW,287,4.0,10.5,86,0.00,,OVC020,0.00,VWS V14.01,2013-01-25 13:10:00,
2013-01-25 07:20:00,20.0,16.5,30.05,WNW,286,4.0,10.5,86,0.00,,OVC020,0.00,VWS V14.01,2013-01-25 13:20:00,
2013-01-25 07:30:00,20.0,16.5,30.05,WNW,292,7.0,17.8,86,0.00,,OVC020,0.00,VWS V14.01,2013-01-25 13:30:00,
2013-01-25 07:40:00,19.7,15.4,30.05,WNW,290,8.0,10.5,83,0.00,,OVC020,0.00,VWS V14.01,2013-01-25 13:40:00,
2013-01-25 07:50:00,19.2,14.9,30.06,WNW,300,5.0,13.6,83,0.00,,OVC020,0.00,VWS V14.01,2013-01-25 13:50:00,
2013-01-25 08:00:00,18.6,14.3,30.06,WNW,298,5.0,10.5,83,0.00,,OVC020,0.00,VWS V14.01,2013-01-25 14:00:00,
2013-01-25 08:10:00,17.8,13.8,30.06,WNW,299,8.0,17.8,84,0.00,,OVC022,0.00,VWS V14.01,2013-01-25 14:10:00,
2013-01-25 08:20:00,16.2,11.1,30.08,WNW,293,10.0,13.6,80,0.00,,OVC022,0.00,VWS V14.01,2013-01-25 14:20:00,
2013-01-25 08:30:00,15.4,10.4,30.09,NW,309,11.0,13.6,80,0.00,,BKN029,0.00,VWS V14.01,2013-01-25 14:30:00,
2013-01-25 08:40:00,15.4,10.4,30.09,NW,309,11.0,11.5,80,0.00,,BKN029,0.00,VWS V14.01,2013-01-25 14:40:00,
2013-01-25 08:50:00,15.4,10.4,30.09,NW,309,11.0,11.5,80,0.00,,SCT032,0.00,VWS V14.01,2013-01-25 14:50:00,
2013-01-25 09:00:00,15.4,10.4,30.10,NW,309,11.0,11.5,80,0.00,,SCT032,0.00,VWS V14.01,2013-01-25 15:00:00,
2013-01-25 09:10:00,15.4,10.4,30.11,NW,309,11.0,11.5,80,0.00,,SCT027,0.00,VWS V14.01,2013-01-25 15:10:00,
2013-01-25 09:20:00,12.9,6.8,30.11,NW,312,12.0,16.8,76,0.00,,SCT027,0.00,VWS V14.01,2013-01-25 15:20:00,
2013-01-25 09:30:00,12.2,6.1,30.11,NNW,330,13.0,16.8,76,0.00,,CLR,0.00,VWS V14.01,2013-01-25 15:30:00,
2013-01-25 09:40:00,11.9,5.8,30.12,WNW,300,11.0,14.7,76,0.00,,CLR,0.00,VWS V14.01,2013-01-25 15:40:00,
2013-01-25 09:50:00,11.6,5.5,30.12,WNW,298,14.0,19.9,76,0.00,,CLR,0.00,VWS V14.01,2013-01-25 15:50:00,
2013-01-25 10:00:00,11.0,4.3,30.13,WNW,301,15.0,23.1,74,0.00,,CLR,0.00,VWS V14.01,2013-01-25 16:00:00,
2013-01-25 10:10:00,10.6,4.0,30.13,NW,314,11.0,21.0,74,0.00,,CLR,0.00,VWS V14.01,2013-01-25 16:10:00,
2013-01-25 10:20:00,10.1,3.8,30.15,NW,305,12.0,21.0,75,0.00,,CLR,0.00,VWS V14.01,2013-01-25 16:20:00,
2013-01-25 10:30:00,10.0,4.0,30.15,NW,306,10.0,19.9,76,0.00,,CLR,0.00,VWS V14.01,2013-01-25 16:30:00,
2013-01-25 10:40:00,9.7,4.2,30.15,NW,306,15.0,16.8,78,0.00,,CLR,0.00,VWS V14.01,2013-01-25 16:40:00,
2013-01-25 10:50:00,9.5,4.0,30.16,NW,316,10.0,17.8,78,0.00,,CLR,0.00,VWS V14.01,2013-01-25 16:50:00,
2013-01-25 11:00:00,9.4,3.9,30.17,WNW,298,10.0,17.8,78,0.00,,CLR,0.00,VWS V14.01,2013-01-25 17:00:00,
2013-01-25 11:10:00,9.0,3.8,30.18,NW,304,14.0,19.9,79,0.00,,CLR,0.00,VWS V14.01,2013-01-25 17:10:00,
2013-01-25 11:20:00,9.1,3.1,30.18,NW,305,7.0,19.9,76,0.00,,CLR,0.00,VWS V14.01,2013-01-25 17:20:00,
2013-01-25 11:30:00,9.0,3.3,30.19,NW,315,11.0,19.9,77,0.00,,CLR,0.00,VWS V14.01,2013-01-25 17:30:00,
2013-01-25 11:40:00,8.6,2.6,30.18,WNW,303,11.0,19.9,76,0.00,,CLR,0.00,VWS V14.01,2013-01-25 17:40:00,
2013-01-25 11:50:00,8.7,3.0,30.19,WNW,294,10.0,16.8,77,0.00,,CLR,0.00,VWS V14.01,2013-01-25 17:50:00,
2013-01-25 12:00:00,8.7,3.0,30.19,NW,318,14.0,17.8,77,0.00,,CLR,0.00,VWS V14.01,2013-01-25 18:00:00,
2013-01-25 12:10:00,8.7,3.0,30.20,NW,315,5.0,18.9,77,0.00,,CLR,0.00,VWS V14.01,2013-01-25 18:10:00,
2013-01-25 12:20:00,8.7,3.0,30.21,NW,312,8.0,17.8,77,0.00,,CLR,0.00,VWS V14.01,2013-01-25 18:20:00,
2013-01-25 12:30:00,8.7,3.3,30.20,NW,311,13.0,15.7,78,0.00,,CLR,0.00,VWS V14.01,2013-01-25 18:30:00,
2013-01-25 12:40:00,9.1,4.2,30.21,WNW,289,5.0,16.8,80,0.00,,CLR,0.00,VWS V14.01,2013-01-25 18:40:00,
2013-01-25 12:50:00,9.0,4.1,30.22,WNW,302,7.0,14.7,80,0.00,,CLR,0.00,VWS V14.01,2013-01-25 18:50:00,
2013-01-25 13:00:00,8.6,3.7,30.21,WNW,300,8.0,16.8,80,0.00,,CLR,0.00,VWS V14.01,2013-01-25 19:00:00,
2013-01-25 13:10:00,9.3,4.7,30.21,NW,313,7.0,12.6,81,0.00,,CLR,0.00,VWS V14.01,2013-01-25 19:10:00,
2013-01-25 13:20:00,9.2,4.3,30.22,NW,313,14.0,16.8,80,0.00,,CLR,0.00,VWS V14.01,2013-01-25 19:20:00,
2013-01-25 13:30:00,8.5,3.1,30.22,NW,320,8.0,16.8,78,0.00,,CLR,0.00,VWS V14.01,2013-01-25 19:30:00,
2013-01-25 13:40:00,8.8,3.9,30.22,WNW,293,7.0,18.9,80,0.00,,CLR,0.00,VWS V14.01,2013-01-25 19:40:00,
2013-01-25 13:50:00,9.2,4.6,30.23,NW,315,10.0,15.7,81,0.00,,CLR,0.00,VWS V14.01,2013-01-25 19:50:00,
2013-01-25 14:00:00,9.0,3.8,30.23,NW,307,8.0,18.9,79,0.00,,CLR,0.00,VWS V14.01,2013-01-25 20:00:00,
2013-01-25 14:10:00,9.2,4.3,30.23,NW,309,6.0,11.5,80,0.00,,CLR,0.00,VWS V14.01,2013-01-25 20:10:00,
2013-01-25 14:20:00,9.2,4.0,30.24,WNW,290,4.0,10.5,79,0.00,,CLR,0.00,VWS V14.01,2013-01-25 20:20:00,
2013-01-25 14:30:00,8.6,2.9,30.24,NW,305,5.0,16.8,77,0.00,,CLR,0.00,VWS V14.01,2013-01-25 20:30:00,
2013-01-25 14:40:00,8.8,3.6,30.24,NW,318,11.0,14.7,79,0.00,,CLR,0.00,VWS V14.01,2013-01-25 20:40:00,
2013-01-25 14:50:00,8.5,3.1,30.24,NW,309,10.0,15.7,78,0.00,,CLR,0.00,VWS V14.01,2013-01-25 20:50:00,
2013-01-25 15:00:00,9.0,4.1,30.24,WNW,303,6.0,13.6,80,0.00,,CLR,0.00,VWS V14.01,2013-01-25 21:00:00,
2013-01-25 15:10:00,8.6,3.4,30.24,NW,315,9.0,16.8,79,0.00,,CLR,0.00,VWS V14.01,2013-01-25 21:10:00,
2013-01-25 15:20:00,8.2,2.8,30.25,WNW,303,8.0,17.8,78,0.00,,CLR,0.00,VWS V14.01,2013-01-25 21:20:00,
2013-01-25 15:30:00,8.3,2.9,30.25,NW,309,5.0,12.6,78,0.00,,CLR,0.00,VWS V14.01,2013-01-25 21:30:00,
2013-01-25 15:40:00,8.3,2.9,30.25,WNW,297,10.0,15.7,78,0.00,,CLR,0.00,VWS V14.01,2013-01-25 21:40:00,
2013-01-25 15:50:00,8.1,3.0,30.25,NW,314,6.0,10.5,79,0.00,,CLR,0.00,VWS V14.01,2013-01-25 21:50:00,
2013-01-25 16:00:00,8.0,3.1,30.25,NW,326,8.0,12.6,80,0.00,,CLR,0.00,VWS V14.01,2013-01-25 22:00:00,
2013-01-25 16:10:00,7.4,2.0,30.26,NW,311,11.0,15.7,78,0.00,,CLR,0.00,VWS V14.01,2013-01-25 22:10:00,
2013-01-25 16:20:00,7.4,2.0,30.27,NW,315,6.0,15.7,78,0.00,,CLR,0.00,VWS V14.01,2013-01-25 22:20:00,
2013-01-25 16:30:00,7.2,2.1,30.27,WNW,296,8.0,12.6,79,0.00,,CLR,0.00,VWS V14.01,2013-01-25 22:30:00,
2013-01-25 16:40:00,6.9,1.8,30.27,NW,313,10.0,14.7,79,0.00,,CLR,0.00,VWS V14.01,2013-01-25 22:40:00,
2013-01-25 16:50:00,6.5,1.9,30.27,WNW,303,7.0,13.6,81,0.00,,CLR,0.00,VWS V14.01,2013-01-25 22:50:00,
2013-01-25 17:00:00,6.5,1.9,30.28,NW,316,6.0,9.4,81,0.00,,CLR,0.00,VWS V14.01,2013-01-25 23:00:00,
2013-01-25 17:10:00,6.5,1.9,30.28,NW,316,6.0,6.3,81,0.00,,CLR,0.00,VWS V14.01,2013-01-25 23:10:00,
2013-01-25 17:20:00,6.5,1.9,30.28,NW,316,6.0,6.3,81,0.00,,CLR,0.00,VWS V14.01,2013-01-25 23:20:00,
2013-01-25 17:30:00,6.5,1.9,30.29,NW,316,6.0,6.3,81,0.00,,CLR,0.00,VWS V14.01,2013-01-25 23:30:00,
2013-01-25 17:40:00,6.5,1.9,30.29,NW,316,6.0,6.3,81,0.00,,CLR,0.00,VWS V14.01,2013-01-25 23:40:00,
2013-01-25 17:50:00,6.5,1.9,30.29,NW,316,6.0,6.3,81,0.00,,CLR,0.00,VWS V14.01,2013-01-25 23:50:00,
2013-01-25 18:00:00,4.5,0.0,30.29,NW,309,2.0,8.4,81,0.00,,CLR,0.00,VWS V14.01,2013-01-26 00:00:00,
2013-01-25 18:10:00,4.4,-0.1,30.30,WNW,293,1.0,7.3,81,0.00,,CLR,0.00,VWS V14.01,2013-01-26 00:10:00,
2013-01-25 18:20:00,3.9,-0.4,30.31,NW,306,1.0,4.2,82,0.00,,CLR,0.00,VWS V14.01,2013-01-26 00:20:00,
2013-01-25 18:30:00,3.8,-0.5,30.31,WNW,301,2.0,5.2,82,0.00,,CLR,0.00,VWS V14.01,2013-01-26 00:30:00,
2013-01-25 18:40:00,3.6,-0.6,30.32,NW,304,2.0,7.3,82,0.00,,CLR,0.00,VWS V14.01,2013-01-26 00:40:00,
2013-01-25 18:50:00,3.6,-0.6,30.32,NW,304,3.0,7.3,82,0.00,,CLR,0.00,VWS V14.01,2013-01-26 00:50:00,
2013-01-25 19:00:00,3.4,-0.9,30.33,NW,306,3.0,8.4,82,0.00,,CLR,0.00,VWS V14.01,2013-01-26 01:00:00,
2013-01-25 19:10:00,3.3,-0.9,30.33,NW,307,2.0,6.3,82,0.00,,CLR,0.00,VWS V14.01,2013-01-26 01:10:00,
2013-01-25 19:20:00,3.0,-1.2,30.34,NW,311,3.0,5.2,82,0.00,,CLR,0.00,VWS V14.01,2013-01-26 01:20:00,
2013-01-25 19:30:00,2.9,-1.3,30.34,NW,311,3.0,8.4,82,0.00,,CLR,0.00,VWS V14.01,2013-01-26 01:30:00,
2013-01-25 19:40:00,2.9,-1.3,30.35,West,261,2.0,9.4,82,0.00,,CLR,0.00,VWS V14.01,2013-01-26 01:40:00,
2013-01-25 19:50:00,2.8,-1.4,30.35,WNW,292,6.0,8.4,82,0.00,,CLR,0.00,VWS V14.01,2013-01-26 01:50:00,
2013-01-25 20:00:00,2.8,-1.4,30.35,WNW,292,6.0,6.3,82,0.00,,CLR,0.00,VWS V14.01,2013-01-26 02:00:00,
2013-01-25 20:10:00,2.8,-1.4,30.35,WNW,292,6.0,6.3,82,0.00,,CLR,0.00,VWS V14.01,2013-01-26 02:10:00,
2013-01-25 20:20:00,2.8,-1.4,30.34,WNW,292,6.0,6.3,82,0.00,,CLR,0.00,VWS V14.01,2013-01-26 02:20:00,
2013-01-25 20:30:00,2.8,-1.4,30.35,WNW,292,6.0,6.3,82,0.00,,CLR,0.00,VWS V14.01,2013-01-26 02:30:00,
2013-01-25 20:40:00,2.8,-1.4,30.35,WNW,292,6.0,6.3,82,0.00,,CLR,0.00,VWS V14.01,2013-01-26 02:40:00,
2013-01-25 20:50:00,2.8,-1.4,30.35,WNW,292,6.0,6.3,82,0.00,,CLR,0.00,VWS V14.01,2013-01-26 02:50:00,
2013-01-25 21:00:00,2.8,-1.4,30.35,WNW,292,6.0,6.3,82,0.00,,CLR,0.00,VWS V14.01,2013-01-26 03:00:00,
2013-01-25 21:10:00,2.8,-1.4,30.34,WNW,292,6.0,6.3,82,0.00,,CLR,0.00,VWS V14.01,2013-01-26 03:10:00,
2013-01-25 21:20:00,2.8,-1.4,30.34,WNW,292,6.0,6.3,82,0.00,,CLR,0.00,VWS V14.01,2013-01-26 03:20:00,
2013-01-25 21:30:00,0.7,-3.2,30.34,NW,325,1.0,6.3,83,0.00,,CLR,0.00,VWS V14.01,2013-01-26 03:30:00,
2013-01-25 21:40:00,0.6,-3.1,30.34,NNW,327,3.0,5.2,84,0.00,,CLR,0.00,VWS V14.01,2013-01-26 03:40:00,
2013-01-25 21:50:00,0.4,-3.5,30.34,NW,309,1.0,5.2,83,0.00,,CLR,0.00,VWS V14.01,2013-01-26 03:50:00,
2013-01-25 22:00:00,0.1,-3.9,30.34,NW,325,2.0,3.1,83,0.00,,CLR,0.00,VWS V14.01,2013-01-26 04:00:00,
2013-01-25 22:10:00,0.2,-3.7,30.35,NNW,329,2.0,4.2,83,0.00,,CLR,0.00,VWS V14.01,2013-01-26 04:10:00,
2013-01-25 22:20:00,0.1,-3.9,30.35,NW,309,0.0,4.2,83,0.00,,CLR,0.00,VWS V14.01,2013-01-26 04:20:00,
2013-01-25 22:25:00,-0.1,-4.0,30.35,NW,309,0.0,0.0,83,0.00,,CLR,0.00,VWS V14.01,2013-01-26 04:25:00,
2013-01-25 22:30:00,-0.1,-4.0,30.36,NW,309,0.0,0.0,83,0.00,,CLR,0.00,VWS V14.01,2013-01-26 04:30:00,
2013-01-25 22:35:00,-0.1,-4.0,30.36,NW,309,0.0,0.0,83,0.00,,CLR,0.00,VWS V14.01,2013-01-26 04:35:00,
2013-01-25 22:40:00,-0.1,-4.0,30.36,NW,309,0.0,0.0,83,0.00,,CLR,0.00,VWS V14.01,2013-01-26 04:40:00,
2013-01-25 22:45:00,-0.1,-4.0,30.36,NW,309,0.0,0.0,83,0.00,,CLR,0.00,VWS V14.01,2013-01-26 04:45:00,
2013-01-25 22:50:00,-0.1,-4.0,30.36,NW,309,0.0,0.0,83,0.00,,CLR,0.00,VWS V14.01,2013-01-26 04:50:00,
2013-01-25 22:55:00,-0.7,-4.4,30.36,NW,309,0.0,3.1,84,0.00,,CLR,0.00,VWS V14.01,2013-01-26 04:55:00,
2013-01-25 23:00:00,-0.9,-4.8,30.36,NW,309,1.0,3.1,83,0.00,,CLR,0.00,VWS V14.01,2013-01-26 05:00:00,
2013-01-25 23:05:00,-1.0,-4.9,30.37,NW,309,1.0,2.1,83,0.00,,CLR,0.00,VWS V14.01,2013-01-26 05:05:00,
2013-01-25 23:10:00,-1.2,-5.1,30.37,NW,309,1.0,2.1,83,0.00,,CLR,0.00,VWS V14.01,2013-01-26 05:10:00,
2013-01-25 23:15:00,-1.4,-5.1,30.37,NW,309,0.0,1.0,84,0.00,,CLR,0.00,VWS V14.01,2013-01-26 05:15:00,
2013-01-25 23:20:00,-1.4,-5.1,30.37,NW,309,0.0,0.0,84,0.00,,CLR,0.00,VWS V14.01,2013-01-26 05:20:00,
2013-01-25 23:25:00,-1.4,-5.1,30.37,NW,309,0.0,0.0,84,0.00,,CLR,0.00,VWS V14.01,2013-01-26 05:25:00,
2013-01-25 23:30:00,-1.5,-5.2,30.37,NW,309,0.0,0.0,84,0.00,,CLR,0.00,VWS V14.01,2013-01-26 05:30:00,
2013-01-25 23:35:00,-1.6,-5.2,30.37,NW,309,0.0,0.0,84,0.00,,CLR,0.00,VWS V14.01,2013-01-26 05:35:00,
2013-01-25 23:40:00,-1.7,-5.3,30.37,NW,309,0.0,0.0,84,0.00,,CLR,0.00,VWS V14.01,2013-01-26 05:40:00,
2013-01-25 23:45:00,-1.8,-5.4,30.37,NW,309,0.0,0.0,84,0.00,,CLR,0.00,VWS V14.01,2013-01-26 05:45:00,
2013-01-25 23:50:00,-1.9,-5.5,30.37,NW,309,0.0,0.0,84,0.00,,CLR,0.00,VWS V14.01,2013-01-26 05:50:00,
2013-01-25 23:55:00,-1.9,-5.5,30.38,NW,309,0.0,0.0,84,0.00,,CLR,0.00,VWS V14.01,2013-01-26 05:55:00,